GS0511 Weather Reports


Display with metric or nautical units.
time (UTC)temp
F
wind
direction
speed
MPH
gust
MPH
rain 1hr
in
rain 24hr
in
rain mn
in
humidity
%
barometer
mb
20260509210002 68 180 6.0 13.0 0.00 0.00 0.00 54 1004.4
20260509204459 68 175 7.0 15.0 0.00 0.00 0.00 55 1004.4
20260509202959 67 236 4.0 10.0 0.00 0.00 0.00 59 1004.2
20260509201459 66 221 5.0 11.0 0.00 0.00 0.00 59 1004.5
20260509200005 66 184 6.0 14.0 0.00 0.00 0.00 60 1004.8
20260509192959 65 211 6.0 16.0 0.00 0.00 0.00 62 1005.2
20260509191459 65 194 6.0 13.0 0.00 0.00 0.00 62 1005.2
20260509190006 66 136 4.0 9.0 0.00 0.00 0.00 63 1005.3
20260509184459 65 180 5.0 11.0 0.00 0.00 0.00 64 1005.6
20260509182959 65 109 6.0 11.0 0.00 0.00 0.00 59 1005.8
20260509181459 64 123 4.0 10.0 0.00 0.00 0.00 60 1006.0
20260509180002 65 229 5.0 10.0 0.00 0.00 0.00 54 1006.2
20260509174500 65 204 7.0 11.0 0.00 0.00 0.00 57 1006.2
20260509172959 64 229 4.0 11.0 0.00 0.00 0.00 59 1006.3
20260509171459 64 197 5.0 11.0 0.00 0.00 0.00 65 1006.4
20260509164459 62 182 3.0 9.0 0.00 0.00 0.00 71 1006.7
20260509162959 62 159 3.0 9.0 0.00 0.00 0.00 72 1007.0
20260509161459 60 69 3.0 6.0 0.00 0.00 0.00 74 1007.3
20260509154458 60 163 3.0 14.0 0.00 0.00 0.00 73 1007.6
20260509153000 59 215 2.0 6.0 0.00 0.00 0.00 75 1007.7
20260509151458 58 230 3.0 6.0 0.00 0.00 0.00 76 1007.7
20260509150002 58 185 3.0 7.0 0.00 0.00 0.00 77 1007.9
20260509144459 58 165 3.0 7.0 0.00 0.00 0.00 76 1007.9
20260509142958 58 188 3.0 5.0 0.00 0.00 0.00 78 1008.2
20260509141500 57 144 3.0 7.0 0.00 0.00 0.00 79 1008.1
20260509134459 56 127 3.0 8.0 0.00 0.00 0.00 80 1008.3
20260509132959 55 139 4.0 8.0 0.00 0.00 0.00 82 1008.6
20260509131458 54 199 5.0 8.0 0.00 0.00 0.00 83 1008.9
20260509130001 53 168 3.0 8.0 0.00 0.00 0.00 84 1008.9
20260509122958 50 173 2.0 5.0 0.00 0.03 0.00 86 1009.2
20260509120002 46 214 0.0 1.0 0.00 0.03 0.00 88 1009.1
20260509114458 44 201 0.0 0.0 0.00 0.03 0.00 90 1009.2
20260509112958 42 212 0.0 1.0 0.00 0.03 0.00 90 1009.2
20260509111458 41 303 0.0 0.0 0.00 0.03 0.00 90 1009.3
20260509104458 39 303 0.0 0.0 0.00 0.03 0.00 91 1009.1
20260509101458 38 303 0.0 0.0 0.00 0.03 0.00 92 1009.1
20260509100002 38 303 0.0 0.0 0.00 0.03 0.00 92 1009.1
20260509094458 38 303 0.0 0.0 0.00 0.03 0.00 92 1009.1
20260509092959 38 303 0.0 0.0 0.00 0.03 0.00 92 1009.1
20260509091459 38 303 0.0 0.0 0.00 0.03 0.00 91 1009.2
20260509090002 38 303 0.0 0.0 0.00 0.03 0.00 91 1009.3
20260509084459 38 303 0.0 0.0 0.00 0.03 0.00 92 1009.4
20260509082959 37 303 0.0 0.0 0.00 0.03 0.00 92 1009.4
20260509081458 37 303 0.0 0.0 0.00 0.03 0.00 92 1009.6
20260509080000 37 303 0.0 0.0 0.00 0.03 0.00 92 1009.6
20260509074500 37 303 0.0 0.0 0.00 0.03 0.00 92 1009.8
20260509070000 37 303 0.0 0.0 0.00 0.03 0.00 91 1010.0
20260509064458 37 303 0.0 0.0 0.00 0.03 0.00 90 1010.1
20260509062957 37 303 0.0 0.0 0.00 0.03 0.00 90 1010.4
20260509061457 38 303 0.0 0.0 0.00 0.03 0.00 89 1010.5
20260509060000 38 303 0.0 0.0 0.00 0.03 0.00 89 1010.7
20260509054457 38 303 0.0 0.0 0.00 0.03 0.00 89 1010.8
20260509052958 39 303 0.0 0.0 0.00 0.03 0.00 88 1010.9
20260509051457 39 303 0.0 0.0 0.00 0.03 0.00 90 1011.1
20260509050001 39 303 0.0 0.0 0.00 0.03 0.00 90 1011.2
20260509044457 39 303 0.0 0.0 0.00 0.04 0.00 88 1011.2
20260509042958 39 303 0.0 0.0 0.00 0.04 0.00 88 1011.4
20260509041458 40 303 0.0 0.0 0.00 0.04 0.00 88 1011.7
20260509040007 40 303 0.0 0.0 0.00 0.04 0.00 89 1011.7
20260509033001 41 303 0.0 0.0 0.00 0.07 0.04 89 1011.6
20260509031502 42 303 0.0 0.0 0.00 0.07 0.04 88 1011.8
20260509030003 42 303 0.0 0.0 0.00 0.07 0.04 87 1011.9
20260509024500 43 303 0.0 0.0 0.00 0.08 0.04 86 1011.8
20260509023000 43 303 0.0 0.0 0.00 0.08 0.04 84 1011.7
20260509021500 44 303 0.0 0.0 0.00 0.08 0.04 82 1011.8
20260509020004 45 303 0.0 0.0 0.00 0.08 0.04 81 1011.8
20260509014500 45 303 0.0 0.0 0.00 0.08 0.04 77 1011.8
20260509011502 47 303 0.0 0.0 0.00 0.08 0.04 72 1011.8
20260509010004 48 303 0.0 0.0 0.00 0.08 0.04 74 1011.5
20260509004500 50 303 0.0 0.0 0.00 0.08 0.04 71 1011.3
20260509003000 51 303 0.0 0.0 0.00 0.08 0.04 66 1011.2
20260509001500 52 303 0.0 0.0 0.00 0.08 0.04 64 1011.2
20260508234500 55 303 0.0 0.0 0.00 0.08 0.04 63 1011.1
20260508233000 55 303 0.0 1.0 0.00 0.08 0.04 51 1011.0
20260508230007 56 283 0.0 1.0 0.00 0.08 0.04 46 1010.9
20260508223000 57 274 3.0 7.0 0.00 0.08 0.04 42 1010.9
20260508221500 57 360 2.0 3.0 0.00 0.08 0.04 45 1010.9
20260508220008 58 251 2.0 8.0 0.00 0.08 0.04 40 1011.0
20260508214500 57 274 3.0 6.0 0.00 0.08 0.04 44 1011.0